Thomson, GA

10:17 PM EST on December 15, 2019 (GMT -0500)
Thomson-McDuffie County

Weather History for KHQU - October, 2019

Change the Weather History Date:

Saturday, October 19, 2019

  Actual Average (KDNL) Record (KDNL)
Temperature  
Mean Temperature 56 °F -  
Max Temperature 61 °F 72 °F 90 °F (2016)
Min Temperature 51 °F 53 °F 42 °F (1996)
Degree Days  
Heating Degree Days 9    
Growing Degree Days 6 (Base 50)    
Moisture  
Dew Point 54 °F    
Average Humidity 93    
Maximum Humidity 99    
Minimum Humidity 69    
Precipitation  
Precipitation 1.93 in - - ()
Sea Level Pressure  
Sea Level Pressure 29.90 in    
Wind  
Wind Speed 7 mph (SE)    
Max Wind Speed 18 mph    
Max Gust Speed 25 mph    
Visibility 6 miles    
Events Rain , Thunderstorm    
Averages and records for this station are not official NWS values.
T = Trace of Precipitation, MM = Missing Value Source: NWS Daily Summary

Daily Weather History Graph

Daily Weather History Graph

Search for Another Location

Airport or City:

Astronomy

Oct. 19, 2019 Rise Set
Actual Time 7:37 AM EDT 6:51 PM EDT
Civil Twilight 7:12 AM EDT 7:17 PM EDT
Nautical Twilight 6:43 AM EDT 7:45 PM EDT
Astronomical Twilight 6:14 AM EDT 8:14 PM EDT
Moon 11:11 PM EDT (10/19) 12:57 PM EDT (10/19)
Length of Visible Light 12h 04m
Length of Day
11h 14m
Waning Gibbous, 70% of the Moon is Illuminated
Oct 19
Waning Gibbous
Oct 21
Last Quarter
Oct 27
New
Nov 4
First Quarter
Nov 12
Full

Hourly Weather History & Observations

Time (EDT) Temp. Dew Point Humidity Pressure Visibility Wind Dir Wind Speed Gust Speed Precip Events Conditions
12:15 AM 53.8 °F 47.8 °F 80% 30.01 in 10.0 mi SSE 4.6 mph - N/A   Clear
12:35 AM 53.2 °F 48.0 °F 82% 30.01 in 10.0 mi SE 4.6 mph - N/A   Clear
12:55 AM 52.7 °F 48.2 °F 85% 30.01 in 10.0 mi SSE 3.5 mph - N/A   Clear
1:15 AM 53.2 °F 47.8 °F 82% 30.01 in 10.0 mi SSE 3.5 mph - N/A   Clear
1:35 AM 53.2 °F 47.8 °F 82% 30.01 in 10.0 mi SSE 4.6 mph - N/A   Clear
1:55 AM 54.5 °F 47.1 °F 76% 30.00 in 10.0 mi SSE 4.6 mph - N/A   Clear
2:15 AM 53.4 °F 47.7 °F 81% 30.01 in 10.0 mi SSE 3.5 mph - N/A   Clear
2:35 AM 54.1 °F 47.8 °F 79% 30.00 in 10.0 mi Calm Calm - N/A   Clear
2:55 AM 53.1 °F 48.2 °F 84% 29.99 in 10.0 mi SSE 3.5 mph - N/A   Clear
3:15 AM 51.8 °F 48.6 °F 89% 29.99 in 10.0 mi Calm Calm - N/A   Mostly Cloudy
3:35 AM 54.5 °F 47.5 °F 77% 29.98 in 10.0 mi SE 5.8 mph - N/A   Overcast
3:55 AM 55.0 °F 47.1 °F 75% 29.99 in 10.0 mi SSE 4.6 mph - N/A   Scattered Clouds
4:15 AM 55.6 °F 47.3 °F 74% 29.98 in 10.0 mi Calm Calm - N/A   Mostly Cloudy
4:35 AM 56.8 °F 46.6 °F 69% 29.98 in 10.0 mi SSE 6.9 mph - N/A   Overcast
4:55 AM 56.8 °F 46.9 °F 69% 29.98 in 10.0 mi South 5.8 mph - N/A   Overcast
5:15 AM 56.8 °F 47.1 °F 70% 29.98 in 10.0 mi SSE 3.5 mph - N/A Rain Light Rain
5:35 AM 55.8 °F 47.7 °F 74% 29.98 in 10.0 mi SE 4.6 mph - N/A Rain Light Rain
5:55 AM 55.6 °F 48.0 °F 76% 29.98 in 10.0 mi SE 8.1 mph - N/A Rain Rain
6:15 AM 54.5 °F 49.1 °F 82% 29.99 in 10.0 mi SE 4.6 mph - N/A Rain Light Rain
6:35 AM 53.4 °F 50.5 °F 90% 29.99 in 5.0 mi SE 5.8 mph - 0.01 in Rain Rain
6:55 AM 53.2 °F 51.1 °F 92% 29.99 in 3.5 mi SE 5.8 mph - 0.04 in Rain Rain
7:15 AM 52.9 °F 51.1 °F 94% 29.99 in 5.0 mi SE 8.1 mph - 0.04 in Rain Rain
7:35 AM 52.7 °F 51.1 °F 94% 30.00 in 5.0 mi SE 8.1 mph - 0.06 in Rain Rain
7:55 AM 52.9 °F 50.9 °F 93% 29.99 in 7.0 mi SE 6.9 mph - 0.08 in Rain Rain
8:15 AM 52.5 °F 51.1 °F 95% 30.00 in 4.0 mi SE 8.1 mph - 0.04 in Rain Rain
8:35 AM 52.7 °F 51.4 °F 95% 30.00 in 4.0 mi SE 9.2 mph - 0.10 in Rain Rain
8:55 AM 53.1 °F 52.2 °F 97% 30.00 in 4.0 mi SE 8.1 mph - 0.14 in Rain Rain
9:15 AM 53.4 °F 52.7 °F 97% 30.00 in 4.0 mi SE 8.1 mph - 0.03 in Rain Rain
9:35 AM 53.4 °F 52.9 °F 98% 30.00 in 2.0 mi SE 10.4 mph - 0.13 in Rain Heavy Rain
9:55 AM 53.8 °F 53.1 °F 97% 30.01 in 1.8 mi SSE 10.4 mph - 0.24 in Rain Heavy Rain
10:15 AM 54.0 °F 53.4 °F 98% 30.01 in 2.0 mi SE 8.1 mph - 0.08 in Rain Heavy Rain
10:35 AM 54.0 °F 53.4 °F 98% 30.00 in 3.5 mi SE 10.4 mph - 0.18 in Rain Rain
10:55 AM 54.1 °F 53.8 °F 99% 29.99 in 3.0 mi ESE 9.2 mph - 0.30 in Rain Rain
11:15 AM 54.7 °F 54.1 °F 98% 29.99 in 5.0 mi ESE 9.2 mph - 0.02 in Rain Light Rain
11:35 AM 54.9 °F 54.3 °F 98% 29.98 in 3.5 mi ESE 8.1 mph - 0.03 in Rain Light Rain
11:55 AM 55.2 °F 54.7 °F 98% 29.98 in 5.0 mi ESE 10.4 mph - 0.05 in Rain Light Rain
12:15 PM 55.4 °F 54.9 °F 98% 29.98 in 3.5 mi SE 9.2 mph - 0.03 in Rain Rain
12:35 PM 55.8 °F 55.2 °F 98% 29.97 in 2.5 mi SE 9.2 mph - 0.09 in Rain Heavy Rain
12:55 PM 55.8 °F 55.4 °F 99% 29.96 in 3.0 mi ESE 8.1 mph - 0.21 in Rain Heavy Rain
1:15 PM 56.1 °F 55.6 °F 98% 29.94 in 3.0 mi SE 9.2 mph - 0.06 in Rain Rain
1:35 PM 56.5 °F 55.9 °F 98% 29.92 in 2.5 mi ESE 11.5 mph - 0.10 in Rain Rain
1:55 PM 56.8 °F 56.3 °F 98% 29.91 in 7.0 mi ESE 10.4 mph - 0.10 in Rain Light Rain
2:15 PM 57.0 °F 56.7 °F 99% 29.89 in 1.5 mi ESE 10.4 mph - 0.01 in Rain Light Rain
2:35 PM 57.6 °F 57.2 °F 99% 29.87 in 3.5 mi ESE 9.2 mph - 0.01 in Rain Light Rain
2:55 PM 57.7 °F 57.4 °F 99% 29.86 in 10.0 mi ESE 11.5 mph 16.1 mph 0.02 in   Light Drizzle
3:15 PM 58.1 °F 57.6 °F 98% 29.85 in 10.0 mi ESE 10.4 mph 19.6 mph N/A   Drizzle
3:35 PM 58.3 °F 57.9 °F 99% 29.84 in 3.0 mi SE 10.4 mph - 0.04 in Rain Rain
3:55 PM 58.6 °F 58.3 °F 99% 29.83 in 3.5 mi SE 11.5 mph 19.6 mph 0.10 in Rain Rain
4:15 PM 58.8 °F 58.5 °F 99% 29.82 in 1.5 mi ESE 9.2 mph - 0.06 in Rain Rain
4:35 PM 59.0 °F 58.6 °F 99% 29.82 in 2.5 mi SE 10.4 mph - 0.08 in Rain Light Rain
4:55 PM 59.2 °F 58.8 °F 99% 29.80 in 3.0 mi ESE 12.7 mph 16.1 mph 0.11 in Rain Light Rain
5:15 PM 59.2 °F 58.8 °F 99% 29.80 in 5.0 mi ESE 10.4 mph - 0.01 in Rain Light Rain
5:35 PM 59.4 °F 59.0 °F 99% 29.80 in 2.5 mi ESE 10.4 mph - 0.01 in Rain Light Rain
5:55 PM 59.4 °F 59.2 °F 99% 29.79 in 3.5 mi ESE 12.7 mph - 0.03 in Rain , Thunderstorm Light Thunderstorms and Rain
6:35 PM 59.9 °F 59.7 °F 99% 29.77 in 2.5 mi SE 11.5 mph - 0.06 in Rain Rain
7:15 PM 60.4 °F 60.1 °F 99% 29.75 in 2.5 mi SE 12.7 mph - 0.03 in Rain Rain
7:35 PM 60.6 °F 60.4 °F 99% 29.73 in 4.0 mi ESE 11.5 mph - 0.08 in Rain Rain
7:55 PM 61.2 °F 60.8 °F 99% 29.77 in 5.0 mi East 4.6 mph 17.3 mph 0.11 in Rain Rain
8:15 PM 61.5 °F 61.2 °F 99% 29.77 in 10.0 mi East 8.1 mph - 0.02 in Rain Light Rain
8:35 PM 61.5 °F 61.2 °F 99% 29.75 in 10.0 mi ESE 11.5 mph - 0.03 in Rain , Thunderstorm Light Thunderstorms and Rain
8:55 PM 61.5 °F 61.2 °F 99% 29.76 in 5.0 mi East 9.2 mph - 0.05 in Rain Rain
9:15 PM 61.0 °F 60.6 °F 99% 29.74 in 3.5 mi East 10.4 mph - 0.03 in Rain Rain
9:35 PM 59.9 °F 59.5 °F 99% 29.76 in 7.0 mi ENE 12.7 mph 19.6 mph 0.04 in Rain Light Rain
9:55 PM 59.4 °F 59.0 °F 99% 29.74 in 2.0 mi East 12.7 mph - 0.13 in Rain , Thunderstorm Heavy Thunderstorms and Rain
10:15 PM 59.5 °F 59.2 °F 99% 29.74 in 3.5 mi East 11.5 mph 17.3 mph 0.05 in Rain Rain
10:35 PM 59.7 °F 59.4 °F 99% 29.68 in 5.0 mi SE 18.4 mph 25.3 mph 0.10 in Rain Rain
10:55 PM 60.1 °F 59.7 °F 99% 29.67 in 7.0 mi SE 12.7 mph 19.6 mph 0.14 in Rain Light Rain
11:15 PM 60.6 °F 60.3 °F 99% 29.69 in 10.0 mi ESE 8.1 mph - N/A Rain Rain
11:35 PM 61.2 °F 60.8 °F 99% 29.68 in 10.0 mi ESE 8.1 mph - N/A   Drizzle
11:55 PM 61.2 °F 60.8 °F 99% 29.68 in 7.0 mi East 6.9 mph - 0.02 in Rain Rain